Overview Statistics Trail Chart Weather Telemetry Raw packets
 

This is the latest recevied weather packets stored in our database for station/object ED3YAB-7. If no packets are shown the sender has not sent any weather packets the latest 10 day(s).

<< 9 10 11 12 13 14 15 >>
Time Temp. Humidity Pressure Rain* Wind** Luminosity Snow
1777941316 11.67° C 70% 1017.7 hPa - - - -
1777940116 11.67° C 71% 1017.8 hPa - - - -
1777938916 11.11° C 72% 1017.7 hPa - - - -
1777937716 10.56° C 73% 1017.7 hPa - - - -
1777936516 10.56° C 73% 1017.6 hPa - - - -
1777935316 10.56° C 73% 1017.6 hPa - - - -
1777934115 11.11° C 73% 1017.6 hPa - - - -
1777932916 11.67° C 73% 1017.3 hPa - - - -
1777931715 11.67° C 72% 1017.3 hPa - - - -
1777930515 12.22° C 73% 1017.3 hPa - - - -
1777928251 12.22° C 72% 1017.5 hPa - - - -
1777927059 13.33° C 70% 1017.3 hPa - - - -
1777927051 13.33° C 70% 1017.3 hPa - - - -
1777925858 12.78° C 71% 1017.6 hPa - - - -
1777925851 12.78° C 71% 1017.6 hPa - - - -
1777924658 12.22° C 74% 1017.6 hPa - - - -
1777924651 12.22° C 74% 1017.6 hPa - - - -
1777923643 12.78° C 68% 1017.6 hPa - - - -
1777923458 12.78° C 68% 1017.6 hPa - - - -
1777923451 12.78° C 68% 1017.6 hPa - - - -
1777922258 15° C 60% 1016.8 hPa - - - -
1777922251 15° C 60% 1016.8 hPa - - - -
1777921051 16.11° C 61% 1016.7 hPa - - - -
1777919858 16.67° C 59% 1016.2 hPa - - - -
1777919850 16.67° C 59% 1016.2 hPa - - - -

* Rain since midnight (hover to see other rain measurements)
** Current wind speed in m/s (hover to see current wind gust speed)